Location: Lafig�re
(44.4503°N, 4.0357°E)
Time: 14:56:38
(UTC+00:00)

Vanguard 2 Rocket - Pass Details

Date: 27 January 2021
Orbit: 554 x 3325 km, 32.9° (Epoch: 06 March)

Event Time Altitude Azimuth Distance (km) Brightness Sun altitude
Rises 17:05:14 0° 264° (W) 6,059 13.0 -3.9°
Reaches altitude 10° 17:10:13 10° 257° (WSW) 4,576 12.3 -4.8°
Maximum altitude 17:20:19 36° 197° (SSW) 2,056 9.1 -6.4°
Drops below altitude 10° 17:26:28 10° 133° (SE) 2,764 9.1 -7.5°
Sets 17:28:45 0° 123° (ESE) 3,459 9.5 -7.9°
